www.pogodaiklimat.ru

Погода и климат >> Архив погоды >> Филиппины >> Мактан


ПОГОДА в Мактане

  • Прогноз погоды в Мактане
  • Монитор погоды в Мактане

АРХИВ ПОГОДЫ в Мактане

Время (UTC), дата Ветер
(напр.,м/с)
 
Видим.   Явления Облачность Т
(С)
Тd
(С)
f
(%)
Тe
(С)
Тes
(С)
Комфортность P
(гПа)
Po
(гПа)
Тmin
(С)
Tmax
(С)
R
(мм)
R24
(мм)
S
(см)
21 10.06 ЮЗ 2 10 км 9/3 600 м
[Cu med, cong Cs]
+27.0 +25.7 93 +40 +40 очень
душно
1009.8 1007.0
00 11.06 ЮЗ 4 10 км {ливн. осадки} 10/3 540 м
[Cb cap Ac As]
+29.2 +25.8 82 +44 +45 опасность
перегрева
1010.4 1007.6 +25.7 5
03 11.06 ЮЗ 4 10 км 6/3 600 м
[Cu med, cong Ci sp]
+32.0 +24.3 64 +44 +53 опасность
перегрева
1009.9 1007.1
06 11.06 ЮЗ 5 10 км 5/3 600 м
[Cu med, cong Ci fib]
+33.8 +24.3 58 +46 +51 опасность
перегрева
1007.4 1004.6
09 11.06 ЮЗ 5 10 км 4/1 600 м
[Cu med, cong Ci fib]
+32.6 +23.5 59 +44 +44 опасность
перегрева
1007.0 1004.2
12 11.06 ЮЗ 4 10 км 4/1 600 м
[Cu med, cong Ac trans]
+30.0 +24.7 73 +43 +43 опасность
перегрева
1009.2 1006.4 +34.8
15 11.06 ЮЗ 2 10 км 1/1 600 м
[Cu med, cong]
+29.5 +25.9 81 +44 +44 опасность
перегрева
1010.4 1007.6
18 11.06 ЮЗ 1 10 км 6/1 540 м
[Cb cap Ac trans]
+28.7 +26.0 85 +43 +43 опасность
перегрева
1009.5 1006.7
21 11.06 З 3 10 км 10/3 540 м
[Cb cap Cs]
+27.9 +25.3 86 +41 +41 опасность
перегрева
1009.5 1006.7
00 12.06 СВ 4 10 км 5/3 600 м
[Cu med, cong Ac trans]
+31.0 +26.4 77 +47 +50 опасность
перегрева
1011.2 1008.4 +27.4
03 12.06 СВ 5 10 км 8/4 540 м
[Cb cap Ci sp]
+31.6 +25.8 71 +47 +52 опасность
перегрева
1011.0 1008.2
06 12.06 СВ 5 10 км 9/3 540 м
[Cb cap Ac trans]
+32.6 +25.6 67 +48 +50 опасность
перегрева
1008.6 1005.8
09 12.06 В 1 10 км 4/1 540 м
[Cb cap Ci fib]
+31.8 +25.3 69 +46 +47 опасность
перегрева
1007.8 1005.0
12 12.06 З 3 10 км 1/1 600 м
[Cu med, cong]
+30.0 +25.8 78 +45 +45 опасность
перегрева
1009.6 1006.8 +34.8
15 12.06 З 2 10 км 3/3 600 м
[Cu med, cong]
+29.6 +25.7 80 +44 +44 опасность
перегрева
1010.7 1007.9
18 12.06 ЮЗ 2 10 км 8/3 600 м
[Cu med, cong Ac trans]
+28.9 +26.0 84 +43 +43 опасность
перегрева
1009.2 1006.4
21 12.06 ЮЗ 2 10 км 8/3 600 м
[Cu med, cong Ci sp]
+28.0 +26.2 90 +42 +42 опасность
перегрева
1008.4 1005.6
00 13.06 ЮЗ 2 10 км 4/4 600 м
[Cu med, cong]
+29.4 +26.3 83 +45 +49 опасность
перегрева
1009.4 1006.6
03 13.06 Ю 5 10 км 5/3 600 м
[Cu med, cong Ci fib]
+33.4 +24.7 60 +46 +53 опасность
перегрева
1008.4 1005.6
06 13.06 Ю 3 10 км 3/3 540 м
[Cb cap]
+33.6 +25.1 61 +47 +56 опасность
перегрева
1006.6 1003.8
09 13.06 В 2 10 км 8/3 600 м
[Cu med, cong Ac trans]
+32.4 +24.5 63 +45 +46 опасность
перегрева
1006.5 1003.7
12 13.06 СВ 2 10 км 8/3 600 м
[Cu med, cong Ac trans]
+31.0 +25.3 72 +45 +45 опасность
перегрева
1009.4 1006.6 +35.9
15 13.06 штиль 0 10 км зарница 9/3 540 м
[Cb cap Ac As]
+29.8 +24.8 75 +43 +43 опасность
перегрева
1009.2 1006.4
18 13.06 СВ 3 10 км гроза без осадков 9/4 540 м
[Cb cap Ac As]
+27.8 +24.1 80 +39 +39 очень
душно
1009.0 1006.2
21 13.06 Ю 1 10 км {гроза, дождь} 8/3 540 м
[Cb cap Cs]
+26.7 +25.2 91 +38 +38 очень
душно
1008.2 1005.4 +24.5 +26.4 1
00 14.06 З 2 10 км 5/3 600 м
[Cu med, cong Ci fib]
+28.8 +25.1 80 +42 +46 опасность
перегрева
1010.0 1007.2 +26.5 1
03 14.06 ЮЗ 4 10 км 4/4 600 м
[Cu med, cong]
+31.6 +24.2 65 +44 +52 опасность
перегрева
1009.2 1006.4
06 14.06 ЮЗ 4 10 км 4/3 540 м
[Cb cap Ac trans]
+33.6 +24.3 58 +46 +52 опасность
перегрева
1006.0 1003.2
09 14.06 ЮЗ 6 10 км гроза без осадков 5/4 540 м
[Cb cap Ac trans Ci fib]
+32.6 +24.4 62 +45 +45 опасность
перегрева
1006.8 1004.0
12 14.06 З 3 10 км гроза без осадков {ливн. осадки} 5/3 540 м
[Cb cap Ac trans]
+27.4 +26.0 92 +41 +41 опасность
перегрева
1009.5 1006.7 +35.0 2
15 14.06 штиль 0 10 км зарница {гроза} 4/3 540 м
[Cb cap Ac trans]
+27.6 +25.2 87 +40 +40 очень
душно
1009.7 1006.9
18 14.06 З 1 10 км {гроза} 6/1 600 м
[Cu med, cong Ac trans]
+27.0 +25.2 90 +39 +39 очень
душно
1008.7 1005.9
21 14.06 ЮЗ 2 10 км 5/1 600 м
[Cu med, cong Ci fib]
+27.0 +24.6 87 +38 +38 очень
душно
1008.3 1005.5 +23.6 +25.0
00 15.06 Ю 6 10 км 3/1 600 м
[Cu med, cong Ci fib]
+30.0 +24.7 73 +43 +45 опасность
перегрева
1010.2 1007.3 +26.6 2
03 15.06 Ю 4 10 км 3/3 600 м
[Cu med, cong]
+32.6 +24.4 62 +45 +55 опасность
перегрева
1009.3 1006.5
06 15.06 ЮЗ 5 10 км 3/3 600 м
[Cu med, cong]
+34.0 +24.5 58 +47 +52 опасность
перегрева
1006.8 1004.1
09 15.06 ЮЗ 3 10 км 9/4 540 м
[Cb cap Cs]
+31.2 +24.6 68 +44 +45 опасность
перегрева
1006.8 1004.0
12 15.06 СЗ 1 10 км зарница {гроза} 5/3 540 м
[Cb cap Ac trans]
+28.5 +24.1 77 +40 +40 очень
душно
1009.4 1006.6 +34.8
15 15.06 З 2 10 км 6/1 600 м
[Cu med, cong Ac trans]
+28.4 +25.2 83 +41 +41 опасность
перегрева
1010.7 1007.9
18 15.06 штиль 0 10 км 3/1 600 м
[Cu med, cong Ci fib]
+28.0 +25.6 87 +41 +41 опасность
перегрева
1008.6 1005.8
21 15.06 ЮЗ 2 10 км 6/3 600 м
[Cu med, cong Ci fib]
+27.6 +25.8 90 +41 +41 опасность
перегрева
1008.3 1005.5
00 16.06 Ю 3 10 км 9/6 600 м
[Cu med, cong Ci fib]
+30.2 +25.2 75 +44 +46 опасность
перегрева
1009.5 1006.7 +27.5
03 16.06 ЮЗ 4 10 км 6/4 600 м
[Cu med, cong Ci fib]
+32.8 +24.3 61 +45 +53 опасность
перегрева
1009.3 1006.5
06 16.06 ЮЗ 6 10 км 6/3 540 м
[Cb cap Ac trans]
+34.2 +23.6 54 +45 +48 опасность
перегрева
1007.6 1004.8
09 16.06 ЮЗ 4 10 км 5/3 540 м
[Cb cap Ac trans]
+32.0 +24.6 65 +45 +45 опасность
перегрева
1007.7 1004.9
12 16.06 Ю 1 10 км 8/4 600 м
[Cu med, cong Ac trans]
+30.4 +24.6 71 +43 +43 опасность
перегрева
1009.9 1007.1 +34.3
15 16.06 З 1 10 км 6/3 540 м
[Cb cap Ac trans]
+28.8 +24.8 79 +41 +41 опасность
перегрева
1011.1 1008.3
18 16.06 С 2 10 км в посл. час ливневой дождь 10/4 540 м
[Cb cap Ac As]
+27.4 +24.5 84 +39 +39 очень
душно
1010.2 1007.4 0.0
21 16.06 С 2 10 км {ливн. осадки} 10/4 540 м
[Cb cap Ac As]
+26.8 +24.7 88 +38 +38 очень
душно
1010.2 1007.4 0.0
00 17.06 В 3 10 км {ливн. осадки} 4/3 600 м
[Cu med, cong Ac trans]
+29.2 +25.3 80 +43 +47 опасность
перегрева
1011.2 1008.4 +26.4 0.0
03 17.06 СВ 4 10 км 5/3 540 м
[Cb cap Ci sp]
+31.6 +24.2 65 +44 +53 опасность
перегрева
1011.0 1008.2
06 17.06 СВ 4 10 км осадки на расстоянии 5/3 540 м
[Cb cap Ci sp]
+32.2 +24.5 64 +45 +52 опасность
перегрева
1008.7 1005.9
09 17.06 ЮВ 2 10 км 4/3 540 м
[Cb cap Ci sp]
+31.8 +24.7 66 +45 +46 опасность
перегрева
1008.6 1005.8
12 17.06 СВ 2 10 км 4/3 600 м
[Cu med, cong Ci fib]
+30.0 +25.0 75 +43 +43 опасность
перегрева
1010.5 1007.7 +34.1
15 17.06 СЗ 1 10 км 5/3 600 м
[Cu med, cong Ci fib]
+29.5 +25.9 81 +44 +44 опасность
перегрева
1011.4 1008.6
18 17.06 С 2 10 км 3/3 600 м
[Cu med, cong]
+28.2 +24.4 80 +40 +40 очень
душно
1010.0 1007.2

 

Местоположение метеостанции Мактан (Филиппины): широта 10.30 долгота 123.96 высота над уровнем моря 24 м.

В архиве по умолчанию представлена погода в Мактане за последнюю неделю. Архивные данные за месяц целиком и за предыдущие месяцы, начиная с января 2011 года, Вы можете получить, выбрав интересующий диапазон дат из раскрывающегося списка и нажав кнопку "Ввод!".


*Определитесь, кто Вы:
робот инопланетянин человек

Внимание! Время в таблицах - всемирное. Для получения местного времени необходимо прибавить поправку, которая равна 8 ч.

Смотрите также архив погоды в соседних городах и на ближайших метеорологических станциях:

Погода в Тагбиларане (Филиппины) (79 км)
Погода в Маасине (Филиппины) (97 км)
Погода в Думагете (Филиппины) (133 км)
Погода в Таклобане (Филиппины) (155 км)
Погода в Серигао Сити (Филиппины) (178 км)
Погода в Катбалогане (Филиппины) (193 км)
Погода в Рохасе (Филиппины) (194 км)
Погода в Дипологе (Филиппины) (201 км)
Погода в Гуиуане (Филиппины) (210 км)
Погода в Кагаян-де-Оро (Филиппины) (211 км)

Пояснения к столбцам:

Ветер - указаны скорость ветра в м/с - средняя за 10 мин, порывы в срок и между сроками (в фигурных скобках) и направление, откуда дует ветер: С - северный, СВ - северо-восточный, В - восточный, ЮВ - юго-восточный, Ю - южный, ЮЗ - юго-западный, З - западный, СЗ - северо-западный.
Видимость - горизонтальная дальность видимости в метрах или километрах. При видимости от 1 до 10 км при отсутствии осадков обычно наблюдается дымка, при ухудшении видимости до 1 км и менее - туман. В сухую погоду видимость может ухудшаться дымом, пылью или мглою.
Явления - указаны атмосферные явления, наблюдавшиеся в срок или в последний час перед сроком; фигурными скобками обозначены явления, наблюдавшиеся между сроками (за 1-3 часа до срока); квадратными скобками обозначены град или гололедные отложения с указанием их диаметра в мм.
Облачность - указаны через наклонную черту общая и нижняя облачность в баллах и высота нижней границы облаков в метрах; квадратными скобками обозначены формы облаков: Ci - перистые, Cs - перисто-слоистые, Cc - перисто-кучевые, Ac - высококучевые, As - высокослоистые, Sc - слоисто-кучевые, Ns - слоисто-дождевые, Cu - кучевые, Cb - кучево-дождевые. Подробнее классификацию облаков см. в Атласе облаков (PDF).
T - Температура воздуха - температура, измеренная на высоте 2 м над землей.
Td - Температура точки росы - температура, при понижении до которой содержащийся в воздухе водяной пар достигнет насыщения.
f - Относительная влажность воздуха - влажноcть воздуха, измеренная на высоте 2 м над землей.
Te - Эффективная температура - температура, которую ощущает одетый по сезону человек в тени. Характеристика душности погоды. При расчете учитывается влияние влажности воздуха и скорости ветра на теплоощущения человека.
Tes - Эффективная температура на солнце - температура, которую ощущает человек, с поправкой на солнечный нагрев. Характеристика знойности погоды. Зависит от высоты солнца над горизонтом, облачности и скорости ветра. Ночью, в пасмурную погоду, а также при ветре 12 м/с и более поправка равна нулю.
P - Атмосферное давление - приведенное к уровню моря атмосферное давление.
Po - Атмосферное давление - измеренное на уровне метеостанции атмосферное давление.
Tmin - Минимальная температура - минимум температуры воздуха на высоте 2 м над землей.
Tmax - Максимальная температура - максимум температуры воздуха на высоте 2 м над землей.
R - Количество осадков - Количество выпавших осадков за период времени, мм. При наведении курсора мыши на число - период времени, за который выпало указанное количество осадков.
R24 - Количество осадков - Количество выпавших осадков за 24 часа, мм.
S - Снежный покров - Высота снежного покрова, см. При наведении курсора мыши на число - состояние снежного покрова и степень покрытия местности в баллах.